NUDTSAT (42787 NORAD) Tracking and Keplerian Element Data

This shows tracking and keplerian element data for the satellite.

Feedback or suggestion? Click here.




ElementValue
Catalog42787
NameNUDTSAT
Epoch Orbit9678
Epoch Day81.92983397
Epoch Year2019
RAAN142.1643
Inclination97.3666
Eccentricity0.0010263
Argument of Perigee169.5179
Mean Anonmoly190.6277
Mean Motion15.23128936
Decay Rate1.588E-05
L11 42787U 17036Y 19081.92983397 .00001588 00000-0 70181-4 0 9997
L22 42787 97.3666 142.1643 0010263 169.5179 190.6277 15.23128936 96780

Live tracking and technical data element details for NUDTSAT (NORAD 42787). NUDTSAT can be tracked NOW for your location showing map with azimuth and elevation plus other details from your city location.

Track the satellite on the map from your city or location and see movement details for azimuth, elevation, latitude, longitude, range, height, and movement on the map or in text.







IsCatalogInMostPopularTable: catalog: 42787, numindb: 205
Update: records affected: 1



GetName: 42787 NUDTSAT

Hit Count: updated at: Sun, 24 Mar 2019 08:37:35 GMT